Theta_e
309 307 307 307 307 306 305 305 306 306 307 308 309 310 310 309 308 306 306 306 306 306 305 306 305 300 297 297 296 297 298 297 297 295 293 292 291 290 290 290 290 290 290 290 290 290 290 289 288 288 287 287 286 286 286 285 284 284 283 283 283 283 284 284 284 284 285 285 285 284 284 283 283 283 283 283 282 282 281 281 281 280 280 280 279 279
308 307 307 306 305 305 305 306 307 307 308 309 310 309 308 308 306 304 306 307 306 306 305 305 305 300 296 296 295 296 296 296 295 294 293 291 291 291 290 290 290 291 291 290 290 290 289 289 288 287 286 285 285 285 284 284 283 282 282 282 282 282 282 282 282 282 283 283 284 284 284 283 283 283 282 282 282 282 281 281 281 280 280 280 279 279
308 308 307 305 305 306 307 308 307 306 308 310 309 308 307 306 305 304 306 307 305 306 305 305 305 299 295 295 295 295 294 294 294 293 292 291 291 291 291 291 291 291 291 290 290 289 289 288 287 286 285 284 284 284 283 282 282 281 281 280 280 280 280 281 281 281 281 282 282 282 283 283 283 283 283 282 282 281 281 281 281 280 280 280 279 279
309 307 305 304 305 307 308 308 306 305 308 309 308 307 306 305 305 304 305 305 305 306 306 306 305 299 295 294 294 294 294 293 293 292 292 292 291 291 292 291 291 291 290 290 289 289 288 287 285 284 283 283 284 284 283 282 281 280 280 279 279 279 278 279 280 280 280 281 281 281 281 282 283 283 283 282 282 281 281 281 281 280 280 280 279 279
308 306 304 305 307 307 308 307 305 304 306 308 308 306 305 304 304 303 304 305 305 306 306 305 305 301 296 294 293 293 293 292 292 292 291 291 291 291 292 291 291 290 290 289 289 288 287 286 284 283 282 282 283 283 282 281 280 279 279 278 278 278 278 278 279 279 280 280 280 280 281 282 283 283 282 282 282 281 281 281 281 280 280 280 279 279
306 304 304 307 308 307 307 307 305 304 304 306 308 306 304 304 304 304 304 305 305 306 305 304 305 304 298 295 294 293 292 292 292 292 292 291 291 292 292 291 290 290 289 289 288 287 286 285 283 282 282 282 282 283 282 281 279 279 278 277 277 278 278 278 279 279 279 279 279 280 280 281 282 282 282 281 281 281 281 281 280 280 280 279 279 279
306 305 306 308 308 307 307 306 305 304 303 306 308 306 304 304 304 305 305 306 305 305 305 304 304 304 301 297 294 293 293 292 292 292 292 292 292 292 291 291 290 289 289 288 287 286 285 284 283 282 281 282 282 282 281 280 279 278 277 277 278 278 278 278 278 278 278 278 278 279 279 280 281 281 281 281 281 281 280 280 280 280 279 279 279 278
308 307 307 309 309 306 305 304 304 303 303 306 308 306 304 304 304 305 306 306 305 304 305 304 303 303 303 299 295 294 293 292 292 292 292 292 292 292 291 290 290 289 289 288 286 285 285 283 282 282 281 281 282 281 280 279 278 277 277 278 277 277 277 277 277 276 276 276 277 277 278 279 280 280 280 280 280 280 280 280 280 279 279 279 278 278
307 307 307 309 309 305 304 303 304 303 303 306 306 305 304 303 304 305 305 305 304 305 305 304 303 303 303 299 294 294 294 293 293 293 293 293 292 291 291 290 290 289 288 287 285 285 284 283 282 281 281 281 281 280 279 278 277 277 277 277 276 276 276 275 275 275 275 275 275 275 277 278 279 279 279 279 279 279 279 279 279 279 278 278 278 278
306 304 305 307 306 303 303 303 303 303 304 305 305 305 304 305 306 305 305 304 304 306 305 304 303 302 303 300 295 294 295 295 295 295 294 293 292 292 291 290 289 288 288 286 285 284 284 282 281 281 281 281 280 279 278 277 277 277 277 276 276 275 275 274 275 274 274 274 274 274 275 276 277 278 278 278 278 278 278 278 278 278 278 277 277 277
305 303 304 305 303 302 302 303 303 303 303 304 304 304 304 307 308 306 304 303 304 307 305 303 303 302 302 302 299 297 297 296 295 295 294 293 292 292 291 289 289 288 286 285 284 284 283 282 281 281 280 280 279 278 277 277 277 277 276 275 275 274 274 274 274 274 274 273 273 273 274 274 275 276 276 276 276 277 277 277 277 277 277 276 276 276
305 305 305 303 302 302 303 304 304 303 303 304 304 304 304 306 306 305 304 304 306 308 305 302 303 302 302 303 301 298 295 295 294 294 294 293 292 291 290 289 288 287 286 285 284 284 283 283 281 281 280 279 279 278 277 276 276 276 276 274 274 273 273 273 273 273 273 273 272 272 273 273 273 273 274 274 274 275 275 275 275 275 275 275 275 275
308 306 304 303 302 302 303 304 305 305 304 304 303 303 305 306 305 305 306 306 307 307 304 303 302 302 302 301 299 296 295 294 293 293 293 292 291 290 289 289 288 287 286 285 284 284 283 282 281 280 279 278 278 277 276 276 276 276 275 274 273 273 272 272 272 273 273 272 272 271 271 271 272 272 272 273 273 273 273 274 274 274 274 274 274 274
310 307 304 304 303 302 302 302 302 303 303 303 302 303 305 304 304 305 305 305 306 305 303 302 302 302 303 300 297 296 295 294 293 293 292 291 290 290 289 289 289 288 286 285 284 283 283 282 280 279 278 278 277 276 276 275 275 275 275 274 273 273 272 272 272 272 272 271 271 270 270 270 271 271 271 272 272 272 273 273 273 273 273 273 273 273
310 310 306 305 303 302 301 300 301 302 302 303 302 302 304 303 302 304 305 304 304 303 302 302 302 304 304 300 297 295 294 294 294 293 292 291 290 290 290 289 289 288 286 285 284 283 282 281 280 279 278 277 276 276 275 275 275 275 274 274 273 272 272 271 271 271 270 270 270 269 270 270 270 270 271 271 271 271 272 272 272 272 272 272 272 272
310 311 305 302 301 301 301 300 301 302 302 303 303 303 303 301 300 303 304 302 302 302 302 303 304 304 302 297 295 295 294 293 294 293 292 291 291 290 290 289 288 287 285 284 283 282 281 280 279 278 277 276 276 275 275 275 274 274 274 273 273 272 271 271 270 269 269 269 269 269 269 269 269 270 270 270 270 271 271 271 271 271 272 272 272 271
309 310 304 301 301 299 300 301 301 301 302 303 303 302 301 299 298 301 302 301 301 302 303 303 304 303 300 297 294 294 294 294 294 293 292 291 291 290 290 289 287 286 285 284 283 282 281 280 279 278 277 276 276 275 275 274 274 273 273 273 272 272 271 270 269 269 268 268 269 269 269 269 269 269 270 270 270 270 270 271 271 271 271 271 271 270
305 308 305 304 304 300 299 300 300 300 301 302 302 301 300 299 298 299 302 302 302 303 302 302 303 302 302 300 296 294 295 296 295 293 291 291 291 290 289 288 287 285 284 283 282 281 280 279 278 277 276 276 275 275 274 274 274 273 272 272 272 272 271 270 269 268 268 268 268 268 268 269 269 269 269 270 269 269 269 269 269 270 270 270 269 270
303 308 307 304 305 301 299 300 301 300 300 301 302 300 300 302 302 301 302 303 302 302 302 301 301 301 302 302 299 297 297 297 295 293 292 291 290 290 289 288 286 285 284 283 282 281 280 279 278 277 276 275 275 274 274 274 273 272 271 271 271 271 270 270 270 268 268 268 268 268 268 269 269 269 269 268 268 268 268 269 269 269 269 269 269 269
303 307 307 304 303 301 299 301 303 302 300 300 300 300 299 301 302 301 301 301 302 301 301 301 301 301 301 301 299 298 297 296 296 294 293 291 290 290 289 287 286 285 284 283 281 280 279 278 277 276 276 275 274 273 273 272 271 271 271 271 270 270 269 269 269 268 268 267 268 268 268 268 268 268 268 268 268 268 268 268 268 268 268 268 268 268
302 305 308 305 303 303 302 301 301 302 301 301 301 301 300 300 301 300 299 300 300 300 300 300 300 301 301 299 298 297 297 297 296 294 292 291 290 289 288 287 286 284 283 282 281 280 279 278 277 276 275 275 274 273 272 271 270 270 270 270 269 269 269 268 268 267 267 267 267 267 268 267 267 267 267 267 267 267 267 267 267 267 267 267 267 267
302 303 306 305 305 306 303 299 298 300 301 301 301 301 300 299 301 301 301 300 300 300 300 299 299 300 299 299 298 297 297 296 295 292 290 290 290 289 288 286 285 284 283 282 280 279 278 277 276 276 275 274 273 272 271 270 270 270 270 269 268 268 268 268 267 267 266 266 267 267 267 266 266 266 266 266 266 266 266 266 266 266 266 266 266 266
300 301 303 305 305 303 299 297 297 299 299 300 299 299 299 299 300 301 302 300 299 299 299 299 299 299 299 298 297 297 296 296 294 292 290 290 290 289 288 286 285 283 282 281 280 278 278 277 276 275 274 274 272 271 270 270 270 269 269 268 268 267 267 267 266 266 266 266 266 266 266 266 266 265 265 265 265 265 265 265 265 265 265 265 265 265
299 301 304 306 305 300 297 296 296 297 297 299 299 298 299 300 300 300 299 297 297 298 298 299 299 300 299 297 296 298 298 296 295 292 291 291 290 289 287 285 284 283 282 280 279 278 277 276 276 275 274 273 272 271 270 269 269 269 268 268 267 267 266 266 266 266 266 266 266 266 265 265 265 264 264 264 264 264 264 264 264 265 265 265 265 265
301 304 304 306 308 305 302 301 300 298 297 299 299 298 298 299 298 298 297 295 296 298 297 298 299 300 300 299 298 299 297 296 294 292 291 291 289 288 287 285 283 282 281 280 278 277 277 276 275 274 273 272 271 270 270 269 269 268 268 267 267 266 266 265 265 265 265 265 265 265 264 264 264 264 264 264 264 264 264 264 265 265 265 265 265 265
302 304 302 305 309 309 308 308 305 303 301 300 299 297 297 299 298 298 297 296 297 299 297 298 300 300 300 300 299 298 297 296 294 292 291 291 289 288 287 285 283 282 280 279 278 277 276 276 275 274 273 271 270 270 269 268 268 268 267 267 266 266 265 265 265 265 265 265 264 264 263 263 263 263 263 263 264 264 264 265 265 265 265 265 265 265
300 302 301 303 306 307 307 307 305 303 302 301 301 299 298 298 297 298 297 298 300 300 299 299 299 299 299 299 299 298 297 296 294 292 291 290 289 288 286 284 283 281 280 279 277 277 276 275 274 273 272 271 270 269 269 268 268 267 267 266 265 265 265 265 264 264 264 264 263 263 263 263 263 263 263 263 264 265 265 265 266 265 266 266 266 267
300 302 303 302 303 305 304 303 302 301 300 300 301 301 299 297 296 297 297 298 300 300 300 300 299 299 299 298 298 297 296 295 293 291 291 290 289 288 286 284 282 281 280 278 277 276 276 275 274 273 272 270 269 269 268 267 267 267 266 266 265 265 264 264 264 264 263 263 263 262 262 263 263 263 263 264 265 265 266 266 266 266 267 267 267 268
299 302 303 302 302 302 300 300 300 300 300 300 300 301 300 297 296 297 297 297 297 298 299 299 299 298 298 297 297 296 296 295 293 292 291 290 289 287 285 284 282 281 279 278 277 276 275 274 273 272 271 270 269 268 267 267 267 266 266 265 264 264 264 264 264 263 263 262 262 262 262 262 262 263 264 265 266 266 266 266 267 267 268 268 269 269
298 302 302 301 301 300 300 301 301 300 300 300 300 301 301 299 297 297 297 296 296 297 297 297 297 296 296 296 296 296 296 295 293 293 291 290 289 287 285 283 281 280 278 277 276 276 275 274 272 272 270 269 269 268 267 266 266 266 265 264 264 264 263 263 263 263 262 262 262 262 262 262 262 264 265 266 266 266 267 267 268 269 269 270 270 270
298 302 302 301 301 302 303 303 303 302 301 300 300 300 299 299 299 298 297 297 296 296 296 296 296 296 296 296 296 296 296 295 293 292 291 290 288 286 284 282 280 279 278 277 276 275 274 273 272 271 270 269 268 267 266 266 266 265 265 264 264 263 263 263 263 262 262 261 261 262 262 262 263 265 266 266 266 267 268 268 269 270 271 271 271 272
297 301 302 301 302 303 303 303 304 302 301 301 301 301 299 298 299 299 298 298 298 298 298 297 297 297 297 297 296 296 295 294 292 291 290 289 288 286 284 282 280 278 277 276 275 275 274 272 271 270 269 268 268 267 266 266 265 265 264 264 263 263 263 263 262 262 261 261 262 262 262 262 264 265 266 266 267 268 268 269 270 271 272 272 273 273
298 300 300 300 302 304 303 303 302 301 304 308 307 305 303 300 299 298 298 298 298 298 298 298 298 298 297 296 296 295 294 293 292 291 290 288 287 285 283 281 280 278 277 276 275 274 273 272 271 270 269 268 267 266 266 265 265 265 264 264 263 262 262 262 261 261 261 261 262 262 262 263 264 266 267 267 268 268 269 270 271 271 272 273 273 274
298 299 299 300 302 304 303 301 301 304 312 313 306 304 305 303 300 300 299 299 299 298 297 298 297 297 297 296 296 295 294 292 291 290 289 288 286 284 282 281 280 278 276 275 274 274 273 272 271 270 269 268 267 266 265 265 265 265 265 264 263 262 262 262 261 261 261 262 262 262 262 263 265 266 267 267 268 269 270 271 271 272 273 274 274 275
299 298 299 299 300 301 302 302 305 311 315 308 300 298 300 299 298 298 298 297 297 297 297 297 297 297 296 296 295 294 293 292 291 290 288 287 285 284 282 281 279 277 276 275 274 273 272 271 270 269 269 268 267 266 265 265 265 265 265 264 263 262 262 261 261 261 261 262 262 263 263 264 265 266 267 268 268 269 270 271 272 273 273 274 275 275
299 299 299 300 300 301 302 304 307 309 308 303 298 295 295 295 296 296 298 299 297 297 297 297 297 296 295 295 295 294 293 291 289 288 287 285 284 282 281 279 278 276 275 274 274 273 272 271 270 269 269 268 267 266 265 264 264 265 265 265 263 262 262 261 261 261 261 262 262 263 263 264 265 267 268 268 269 269 270 271 272 273 273 274 275 275
298 299 299 300 301 303 303 303 303 304 306 305 300 296 295 296 296 297 299 300 298 296 296 296 296 295 294 294 294 293 291 289 288 287 285 283 282 280 279 278 277 276 275 275 274 273 272 272 270 270 269 268 267 266 265 265 265 265 266 265 263 262 262 261 261 261 262 262 262 263 264 264 265 267 268 268 269 270 270 271 272 273 273 274 275 275
297 297 297 300 303 302 301 301 303 305 309 308 301 296 294 295 294 294 296 298 297 296 296 296 296 295 293 293 293 291 289 289 289 287 283 281 281 280 279 278 277 276 276 275 274 273 273 272 271 270 269 268 267 266 265 265 266 266 266 265 264 262 262 262 261 261 262 262 262 263 264 265 265 266 267 268 269 270 270 271 272 273 273 274 275 275
295 295 296 298 300 300 299 302 303 305 308 307 300 294 293 293 293 293 297 301 298 296 296 296 295 294 293 292 291 290 289 290 292 289 284 282 282 281 280 279 277 276 276 274 274 273 273 272 271 270 269 268 267 266 265 266 266 266 266 266 264 263 262 262 262 262 262 262 263 263 264 265 266 266 267 268 269 270 270 271 272 273 273 274 274 275
295 296 296 297 298 298 299 301 303 303 305 304 298 292 292 292 293 296 303 305 298 294 295 295 293 293 293 292 291 290 289 291 292 289 285 284 283 281 280 279 277 276 276 275 274 273 273 272 271 270 269 268 267 266 266 266 267 266 266 266 265 263 263 262 262 262 262 263 263 264 265 265 266 267 267 268 269 270 270 271 272 273 273 274 274 275
296 296 296 297 299 299 300 302 302 303 305 301 295 292 291 292 296 301 307 305 296 294 295 294 293 293 292 291 291 290 290 291 290 289 286 285 283 281 279 278 277 276 276 275 274 273 273 272 271 270 269 268 267 267 266 266 267 267 267 266 265 264 263 263 262 262 262 263 264 264 265 265 266 267 267 268 269 270 271 271 272 273 273 274 274 274
301 299 298 298 299 299 301 302 302 304 303 296 291 291 292 296 303 306 303 300 297 295 295 294 294 293 292 291 291 290 291 290 289 288 286 284 283 281 279 278 277 276 275 275 274 273 273 273 272 271 270 269 268 268 267 267 267 267 267 266 265 264 263 263 263 263 263 264 264 265 265 266 266 267 268 268 269 270 271 271 272 272 273 273 274 274
304 304 304 302 300 301 301 301 305 310 303 294 293 295 293 298 306 305 299 298 298 297 296 295 294 294 293 292 291 291 290 290 288 287 286 284 282 281 279 278 277 276 276 275 274 274 273 273 272 271 270 269 268 268 267 267 267 268 267 267 266 265 264 264 263 263 263 264 265 265 265 266 267 267 268 268 269 270 271 272 272 272 273 273 274 274
304 306 308 306 305 306 305 305 308 309 301 294 298 302 299 299 303 301 299 299 298 297 297 296 295 294 293 292 292 291 290 289 288 288 286 284 282 280 279 278 277 276 276 275 275 274 274 273 273 272 270 270 269 268 267 267 268 268 268 267 266 265 265 264 264 264 264 264 265 265 266 267 267 268 268 268 269 270 270 272 272 272 272 273 274 274
305 304 304 305 306 307 306 306 305 303 299 297 299 301 301 300 301 300 299 298 298 298 297 296 295 295 293 292 292 291 290 289 289 288 286 284 282 281 279 278 277 277 276 275 275 274 274 274 273 272 271 270 269 268 268 267 268 268 268 267 267 266 265 265 264 264 264 265 265 266 266 267 267 268 268 268 269 269 270 271 272 272 272 273 273 274
302 300 299 302 304 302 302 302 301 300 301 301 300 300 301 301 301 300 299 299 299 299 298 297 296 295 294 293 292 291 291 290 289 288 286 284 282 281 280 279 278 277 276 276 275 275 274 274 273 273 272 271 270 269 268 268 268 268 268 268 267 266 266 265 265 265 265 265 265 266 267 267 268 268 268 268 269 269 270 270 271 272 272 272 272 273
300 298 298 300 301 300 301 302 302 301 302 301 300 301 301 301 301 301 300 299 299 299 298 297 296 295 294 293 292 291 291 290 289 288 286 284 283 281 280 279 278 277 277 276 276 275 274 274 273 273 272 271 270 270 269 268 268 268 268 268 267 267 266 266 265 265 265 265 266 266 266 267 268 269 269 269 269 269 269 269 270 271 272 272 272 272
300 298 298 299 299 298 300 301 300 300 301 301 301 302 301 301 302 301 300 300 299 298 297 297 296 295 294 293 292 292 291 290 289 288 287 285 283 282 281 280 278 277 277 276 276 275 275 274 274 273 272 272 271 270 269 269 268 268 268 268 267 267 267 266 266 266 265 265 266 266 266 267 268 269 269 269 269 270 270 270 270 271 271 271 271 272
299 298 299 300 298 298 299 300 299 300 301 302 303 303 302 302 301 300 300 299 298 298 297 296 295 295 294 293 293 291 290 290 289 289 288 286 284 282 281 280 278 278 277 277 276 276 275 274 274 273 273 272 271 270 270 269 268 268 268 268 268 267 267 266 266 266 266 265 265 266 266 267 268 268 269 270 270 270 270 270 270 271 272 271 271 271
298 299 299 300 301 301 301 301 302 303 303 302 302 302 302 301 300 299 299 298 298 297 297 296 295 294 293 293 292 291 291 290 290 289 288 286 284 283 282 280 278 278 278 277 276 276 275 275 274 274 273 272 271 271 270 269 268 268 268 268 268 267 267 267 267 267 266 265 265 266 266 267 267 268 268 269 270 270 270 270 269 270 272 272 272 271
298 300 300 301 303 303 302 302 302 302 301 301 302 302 301 301 300 298 298 298 298 297 296 295 295 294 293 293 292 292 291 291 290 289 288 287 285 283 282 280 279 278 278 277 277 276 276 275 274 274 273 272 272 271 270 269 269 269 269 268 268 267 267 267 267 267 267 266 266 266 266 266 267 267 268 268 269 270 271 271 270 269 270 271 273 272
Wind_Speed
7 6 5 5 4 4 4 4 2 3 4 5 5 5 6 6 5 8 8 1 2 2 3 5 2 6 6 5 7 7 8 10 11 12 12 12 10 9 8 6 4 2 4 8 11 17 25 31 33 34 31 29 29 27 23 22 23 24 25 26 26 26 26 26 27 27 27 28 29 27 23 22 21 20 19 19 19 17 16 17 15 15 18 19 18 16
7 7 5 5 4 4 3 2 3 4 5 5 5 4 4 5 7 10 7 0 0 2 3 6 2 5 5 4 6 7 6 7 9 11 11 10 9 7 6 5 3 3 7 11 16 24 29 30 30 30 29 29 27 23 22 25 27 25 25 26 26 28 29 28 28 28 28 29 31 32 28 24 23 22 21 20 19 18 18 17 16 17 19 19 16 14
6 6 4 5 6 4 3 3 6 9 5 5 3 3 3 4 7 8 5 4 5 4 4 7 3 4 5 4 5 6 6 6 7 9 10 9 8 6 4 2 3 6 10 14 20 26 27 27 28 29 31 31 26 24 26 26 26 26 27 27 29 30 31 30 29 29 29 29 29 31 33 30 27 26 24 21 19 19 19 19 20 20 19 18 16 14
4 4 3 5 6 5 2 1 7 9 4 2 1 3 5 5 6 5 5 9 10 5 3 5 3 2 5 4 4 5 6 6 7 8 8 8 7 5 3 1 5 9 12 17 21 24 26 26 26 29 33 32 28 27 26 24 27 30 31 32 34 35 34 32 30 29 29 31 31 32 33 32 32 31 26 23 22 22 22 21 21 19 18 18 17 16
4 2 5 6 5 4 4 4 7 6 4 2 3 0 6 7 7 7 7 10 9 4 3 4 4 3 5 4 4 5 6 7 7 7 7 6 6 5 2 3 7 9 13 19 22 25 27 24 24 30 35 32 29 28 27 28 30 32 34 37 37 34 31 28 26 25 24 24 27 31 31 28 28 26 23 21 23 23 21 19 18 18 18 18 17 16
4 2 4 6 3 6 6 4 6 4 5 3 2 1 7 8 8 10 9 8 5 2 1 2 4 2 6 7 5 5 5 6 7 8 7 6 8 4 2 6 9 11 15 20 24 27 26 22 24 32 35 32 29 29 28 30 31 34 37 36 31 27 23 22 23 24 22 21 23 27 29 26 23 22 21 20 21 20 19 19 18 17 17 17 17 17
2 0 2 4 2 6 6 3 4 4 4 4 3 6 8 7 7 9 8 5 2 4 3 2 1 3 3 6 6 5 5 5 6 8 7 8 7 1 4 7 11 15 18 22 26 28 24 22 26 33 34 30 29 29 29 30 33 37 35 28 25 24 23 23 24 25 26 26 26 27 30 29 26 25 23 22 21 20 20 21 22 20 20 18 16 17
1 2 3 4 2 5 5 3 3 3 2 4 7 11 11 9 8 7 7 4 3 6 4 3 3 5 3 3 5 6 5 5 5 6 8 9 4 3 5 10 14 17 20 24 27 25 22 23 27 31 31 28 29 30 30 33 36 34 28 24 26 28 27 27 28 29 28 28 28 29 29 26 23 22 20 20 21 21 20 22 23 21 20 18 16 17
3 4 3 4 3 3 4 4 3 2 0 5 10 12 12 11 9 6 4 4 4 4 3 1 2 4 5 1 4 5 4 5 7 6 7 7 3 3 8 13 18 20 21 24 25 22 20 24 28 30 29 29 29 30 32 35 36 30 25 25 28 28 29 29 30 30 27 25 26 27 26 21 18 17 16 16 17 17 17 19 19 17 16 16 16 17
1 3 3 3 2 1 3 5 2 2 3 8 11 13 12 10 8 4 3 4 4 2 2 2 2 4 5 2 4 4 4 4 5 4 3 4 3 6 10 15 20 21 21 23 24 22 21 24 27 29 29 30 29 30 33 35 32 27 24 26 26 27 28 27 26 25 25 25 25 24 25 23 19 17 16 15 14 14 15 15 14 14 14 15 16 18
3 4 3 1 0 3 5 7 4 6 8 10 9 10 10 6 2 4 2 2 1 1 2 1 4 5 4 1 4 2 3 3 3 2 3 3 5 8 10 15 19 20 21 24 24 23 24 26 27 28 30 30 29 31 34 33 28 26 24 24 25 26 26 25 24 25 25 25 24 24 24 24 23 22 21 20 19 17 16 16 15 16 17 18 20 21
2 2 1 2 1 4 6 5 4 8 10 7 5 6 7 4 2 2 1 2 0 3 2 4 6 3 4 2 2 3 4 5 4 4 4 4 7 8 10 15 19 20 22 24 23 25 27 27 27 28 30 30 31 34 35 30 27 26 25 24 25 26 26 25 25 26 25 24 23 24 24 24 24 24 24 25 24 23 22 22 22 22 22 23 23 24
2 2 1 3 1 5 5 3 1 3 5 4 4 6 5 3 2 1 1 1 2 5 1 6 8 2 5 2 3 5 5 6 8 7 4 4 5 8 12 15 18 22 24 22 22 26 27 26 26 27 29 31 33 34 32 28 26 26 26 25 25 27 27 26 25 24 23 23 25 26 26 25 24 24 24 24 25 25 25 25 24 24 24 24 24 24
1 1 0 1 1 6 5 3 1 2 4 4 4 5 3 3 4 4 3 2 4 5 5 9 7 2 4 2 3 5 6 9 10 7 4 2 4 10 14 16 20 25 24 21 22 26 25 25 26 27 29 32 33 32 28 27 27 26 27 27 25 26 28 25 23 23 24 27 29 29 27 26 25 25 24 23 24 24 24 24 23 24 25 26 27 27
1 2 2 1 1 3 4 2 1 1 4 3 1 3 3 2 1 2 3 4 5 7 10 8 2 2 5 3 4 6 8 9 9 7 6 5 8 13 15 18 22 23 21 22 24 25 25 25 26 28 30 30 30 29 27 27 26 25 27 27 26 26 26 24 24 26 28 29 29 28 26 25 24 24 23 22 22 22 22 23 24 25 26 26 27 27
2 3 0 3 2 2 2 1 1 0 2 3 1 3 2 1 2 2 4 5 6 7 7 3 3 3 2 1 3 6 6 7 8 10 8 8 12 16 17 19 20 20 21 23 25 25 26 26 27 28 29 30 29 27 26 27 26 25 27 28 27 25 26 27 27 28 29 28 26 25 25 24 22 22 22 21 20 20 20 21 22 23 23 23 23 25
2 2 3 2 3 3 3 1 1 1 1 2 1 1 1 3 3 1 5 6 5 4 4 3 5 4 1 1 2 4 5 6 9 10 8 11 16 15 14 17 18 20 22 22 22 23 26 27 28 27 28 29 28 26 28 28 25 24 28 30 29 26 25 28 29 29 28 27 25 25 24 22 21 21 20 20 19 19 19 19 20 21 21 22 24 25
1 3 4 4 1 1 3 2 3 4 3 1 0 2 0 3 3 1 3 3 2 4 4 4 7 7 4 3 3 5 5 5 5 6 8 13 15 12 13 17 18 20 20 19 20 23 26 28 27 26 27 27 26 27 28 26 25 28 30 29 28 25 24 26 30 30 27 25 25 23 22 21 20 19 19 19 20 20 20 20 21 21 22 23 23 23
1 2 2 2 2 3 3 2 1 4 7 3 4 1 1 2 1 1 2 3 3 5 5 5 7 7 4 3 3 4 6 8 6 5 8 11 10 12 17 18 18 20 19 19 21 23 26 28 26 26 28 26 25 27 27 27 30 30 27 25 24 23 22 24 27 28 25 23 23 22 20 20 19 19 20 21 21 21 21 21 21 21 21 21 20 20
1 1 2 1 3 4 2 1 1 1 5 3 3 1 1 2 2 1 0 1 2 4 5 7 8 5 3 4 4 5 6 7 7 4 5 7 12 19 22 21 20 20 19 19 20 24 28 28 26 27 27 25 26 28 29 31 31 26 21 20 21 23 24 24 25 25 24 22 21 20 19 19 20 21 21 20 20 20 20 20 20 20 20 20 19 19
1 2 2 1 3 3 2 0 0 1 0 0 1 1 1 0 1 1 0 1 2 2 2 6 9 7 3 3 3 5 6 7 6 4 4 9 17 21 21 21 21 19 18 18 20 25 29 28 27 27 26 25 28 29 30 31 27 21 20 22 22 24 24 24 25 25 24 22 20 19 19 20 21 21 19 19 19 19 20 21 22 22 22 23 23 23
1 1 2 2 2 1 1 1 4 2 1 1 1 2 2 1 2 1 2 0 1 2 2 2 9 10 5 2 3 5 7 5 9 9 8 13 19 20 20 20 19 18 17 17 21 27 29 28 27 26 25 27 30 30 30 29 24 21 22 23 24 24 23 24 25 24 21 20 19 19 20 21 20 20 21 22 23 23 23 24 25 26 26 26 26 25
1 1 3 4 3 0 2 2 5 6 4 2 1 2 3 3 3 2 3 2 0 2 2 2 6 8 2 5 6 6 4 10 14 11 11 16 20 19 19 19 18 15 15 17 22 28 29 28 26 25 26 29 31 30 28 28 23 21 23 24 23 24 23 23 23 21 20 20 19 19 20 20 21 23 24 25 25 24 24 24 25 25 24 23 23 22
1 1 2 4 2 1 1 2 4 7 5 1 2 3 3 3 3 3 1 1 1 3 2 2 5 7 2 6 7 7 10 15 13 10 13 17 18 18 19 19 16 14 15 18 24 29 29 27 25 25 27 31 31 29 27 27 24 21 23 23 23 24 24 23 21 20 19 19 19 20 21 22 23 24 24 24 24 24 23 23 22 22 21 21 21 20
1 1 1 3 4 2 2 2 2 3 1 2 2 4 4 4 5 4 3 3 1 5 5 3 6 8 4 3 8 12 13 14 11 10 14 17 16 19 20 18 15 14 16 19 24 29 28 25 24 25 28 31 30 26 26 27 24 22 23 23 22 23 23 22 21 20 19 19 21 22 23 23 23 23 23 24 24 23 22 21 20 19 19 19 20 21
1 1 1 1 2 3 4 3 2 1 2 2 2 5 5 6 8 3 2 2 2 5 6 5 8 13 12 9 12 12 10 13 12 10 13 17 18 19 19 17 15 14 16 19 25 29 27 24 25 26 29 32 29 25 26 27 23 22 23 23 22 21 21 22 20 19 20 22 23 24 23 22 22 22 23 23 22 21 20 19 18 18 18 20 21 22
1 3 4 5 5 5 5 6 4 3 4 5 3 6 6 6 8 5 2 3 4 3 6 9 11 17 20 16 14 13 12 12 11 10 15 19 19 19 18 17 16 15 16 19 26 29 26 24 25 26 29 31 27 25 27 26 23 22 23 22 22 21 21 21 20 21 22 23 24 23 22 22 22 22 22 21 20 19 18 17 17 18 19 19 20 20
0 3 4 5 8 8 8 11 9 6 8 10 8 7 8 8 8 7 7 9 3 2 7 11 9 13 20 19 16 15 13 10 8 11 16 19 19 19 19 18 17 16 16 20 27 28 25 24 25 27 30 30 25 26 28 25 22 22 21 21 21 20 20 20 21 22 23 23 23 22 21 22 21 21 20 19 18 17 17 17 17 18 18 18 19 19
0 4 1 1 7 10 10 13 13 9 9 10 10 8 7 10 12 12 14 13 5 4 12 15 12 14 19 20 17 16 14 11 10 14 17 19 20 20 20 19 17 15 17 22 27 27 23 23 25 27 30 28 25 27 28 24 21 21 21 21 21 20 20 20 21 22 23 23 22 21 21 21 20 20 18 17 16 16 16 17 17 17 17 17 17 17
1 2 1 1 7 11 12 13 11 8 9 9 10 11 9 10 14 15 15 13 10 13 18 19 20 20 19 18 17 18 18 16 15 17 18 19 20 21 20 17 15 14 17 23 27 25 22 23 25 28 29 27 25 27 27 23 21 22 21 21 20 20 20 19 20 22 23 23 22 20 20 20 19 18 16 15 15 16 16 17 17 17 16 16 16 16
2 1 0 0 6 10 9 8 7 7 9 10 11 11 10 10 11 13 14 11 9 14 18 16 18 19 16 14 15 17 18 17 18 19 19 18 19 20 19 15 13 14 18 24 26 23 22 23 25 28 28 25 25 27 25 22 21 20 20 21 22 21 19 18 19 22 22 22 21 19 19 19 18 17 15 14 15 15 16 16 16 16 16 16 16 16
2 1 1 2 4 7 4 2 5 7 8 11 13 13 12 11 9 9 10 8 8 11 12 11 11 13 11 8 10 15 16 16 16 18 18 19 19 19 16 13 13 16 20 25 24 22 22 24 25 28 27 25 26 26 24 22 20 19 19 21 22 20 20 20 20 20 21 21 19 18 18 18 17 15 14 14 15 15 15 15 15 15 16 16 16 16
2 1 2 2 2 5 2 3 8 8 7 7 9 9 10 11 10 9 8 9 11 10 7 7 10 11 10 10 11 13 13 13 15 17 18 20 21 18 15 14 15 18 22 23 22 21 23 25 26 27 27 27 27 25 22 19 19 19 19 21 21 20 22 22 18 17 20 20 17 17 17 17 15 14 14 14 14 14 14 14 14 15 16 16 16 17
2 1 1 0 2 5 6 9 9 5 4 4 3 4 7 8 9 10 10 10 10 9 7 10 12 13 13 12 12 13 13 14 18 19 19 22 22 18 15 15 18 21 22 21 20 22 24 25 26 27 27 27 26 24 21 17 17 20 21 21 21 21 22 21 17 18 20 18 16 16 17 16 14 13 13 13 14 14 14 14 14 14 15 16 16 17
4 2 1 1 2 4 6 7 6 4 4 4 2 2 2 1 2 6 11 12 11 11 13 14 15 15 16 17 16 17 20 20 20 22 23 23 21 18 16 18 20 21 20 19 20 23 25 26 26 27 27 27 25 22 20 17 18 22 23 22 21 20 21 20 19 20 20 17 16 16 15 15 13 13 13 13 13 14 14 14 13 14 14 15 16 18
5 3 1 2 2 3 4 3 2 7 10 5 1 3 4 3 2 3 11 13 11 13 14 14 15 17 18 20 20 19 21 22 21 22 22 19 17 16 16 18 18 18 18 19 22 24 25 26 27 27 27 25 24 21 19 19 22 24 24 22 20 20 21 20 19 20 19 16 16 15 14 14 13 12 13 13 13 14 14 13 13 13 14 14 15 16
4 2 1 1 3 2 2 3 4 9 13 6 1 3 2 2 3 3 6 10 7 11 14 12 12 14 15 18 20 18 18 18 16 14 13 13 12 13 15 16 17 18 19 21 23 24 25 26 26 26 25 25 23 20 19 22 24 24 24 22 19 20 22 20 19 19 18 16 15 15 13 13 13 13 13 13 14 14 13 13 13 13 14 15 14 15
2 0 2 1 2 1 1 4 4 5 7 3 2 2 6 6 7 9 0 9 6 11 16 13 10 11 12 14 16 13 11 11 10 6 7 8 10 12 15 18 18 20 21 22 23 24 25 26 26 25 25 24 22 20 21 23 24 23 23 22 19 21 21 19 18 18 17 16 15 14 13 13 13 13 14 14 15 15 14 14 13 13 13 15 15 14
2 2 2 0 3 1 1 3 3 4 7 4 4 5 10 10 8 8 1 8 3 9 15 14 11 12 13 14 13 7 4 7 9 5 4 8 12 16 19 20 20 21 22 22 23 24 25 26 25 24 24 23 22 22 22 23 23 23 23 21 19 20 20 18 18 18 16 16 15 14 13 12 12 13 14 15 15 15 15 15 14 13 13 14 14 14
1 0 1 2 4 3 3 3 4 5 7 3 7 9 10 10 8 5 6 8 5 10 14 15 14 15 16 15 11 5 3 8 10 9 9 14 18 20 21 21 21 21 22 22 22 23 24 25 24 24 24 23 23 23 22 22 23 23 23 21 19 19 18 17 17 17 16 15 14 13 12 11 12 13 14 15 16 15 15 16 15 14 13 13 13 12
2 2 3 4 4 4 5 5 5 6 7 2 9 15 14 8 4 2 7 6 5 8 11 14 16 16 16 15 13 11 13 18 18 18 19 19 20 20 21 21 21 21 22 22 22 23 24 24 24 24 24 23 23 23 22 22 23 23 22 20 19 18 17 17 17 16 15 14 13 12 11 11 12 12 13 15 16 15 15 15 16 15 14 13 12 11
3 3 4 4 4 4 5 3 4 6 5 7 15 15 12 5 2 5 7 7 7 9 11 13 16 16 16 18 19 21 23 23 21 22 22 21 20 20 20 20 21 21 21 21 22 23 23 24 23 23 23 23 23 23 21 22 22 22 21 20 18 17 17 16 16 15 14 13 12 11 10 10 11 12 12 13 15 15 14 14 15 14 13 13 12 11
4 3 3 4 4 3 3 2 3 7 4 15 17 8 6 6 8 11 11 15 17 17 15 16 18 19 19 21 23 24 25 23 22 22 22 21 21 20 20 21 21 20 21 21 21 22 22 23 23 23 23 23 24 23 21 21 21 21 21 20 18 17 17 16 15 15 13 12 11 11 10 10 10 10 12 13 14 15 14 14 14 13 12 12 12 11
3 4 3 3 4 3 2 4 4 2 9 23 18 5 9 16 23 25 21 22 26 25 22 22 24 24 22 24 25 25 24 24 23 23 22 21 21 20 20 21 21 20 21 21 21 22 22 23 23 23 23 23 23 23 22 21 21 21 20 19 18 18 17 15 14 14 13 12 11 11 10 10 9 10 11 12 14 15 15 14 13 12 11 11 11 11
6 6 2 2 4 3 4 10 12 10 9 18 21 23 28 31 34 32 28 29 32 32 29 27 29 28 25 25 26 25 25 26 25 24 24 23 22 21 21 22 21 20 21 21 21 21 22 22 22 23 23 23 23 23 22 20 20 20 20 19 19 18 17 15 14 13 12 11 11 11 10 10 9 10 10 11 13 14 15 15 14 13 11 11 10 11
8 7 3 0 2 5 12 20 24 25 26 25 26 31 35 36 36 34 33 34 36 36 34 32 32 31 28 26 26 27 28 28 26 25 25 24 23 23 22 22 21 21 21 21 21 21 21 22 22 22 23 22 22 23 22 20 20 20 19 19 18 18 17 16 14 12 12 11 11 10 11 11 10 10 10 11 12 13 14 15 15 13 11 10 10 10
5 5 4 2 2 3 7 12 13 18 26 29 28 32 34 35 35 34 33 34 36 36 34 34 33 32 30 29 29 30 30 28 27 27 26 25 25 24 23 22 21 21 21 21 20 20 21 21 22 22 22 22 22 22 22 20 19 19 19 18 18 18 17 16 14 13 11 11 11 10 11 11 11 11 10 10 11 12 12 13 14 13 11 10 11 11
1 3 2 4 4 5 10 17 23 31 37 36 33 32 31 31 31 31 31 32 33 34 34 34 33 32 32 32 31 31 30 29 29 28 28 27 27 25 24 23 21 21 21 21 21 21 21 21 21 21 22 22 22 22 21 20 19 18 18 18 18 18 17 16 15 13 12 11 11 11 11 12 11 11 11 11 11 12 12 12 13 12 10 10 11 12
2 2 3 3 5 7 13 21 27 28 27 26 25 26 27 29 30 30 30 32 33 35 36 35 34 34 34 33 32 31 31 31 30 29 28 28 28 27 25 23 21 21 21 21 21 21 21 21 21 21 21 21 22 22 21 20 19 18 18 18 18 19 18 16 15 13 12 12 11 11 11 12 12 12 12 12 11 11 12 12 14 13 11 9 10 11
3 4 3 1 3 6 9 15 17 11 11 20 29 31 32 34 32 32 33 35 36 38 38 36 36 35 34 34 33 32 33 34 32 30 29 30 29 28 26 24 22 22 21 21 20 21 21 21 21 21 21 21 21 22 21 20 19 18 18 18 18 18 18 18 16 14 12 12 12 12 12 12 12 12 13 13 13 12 11 10 11 14 14 11 10 10
11 10 6 5 6 10 17 27 28 18 17 28 38 39 39 39 37 37 39 40 41 41 38 36 37 37 36 37 35 34 35 35 32 31 31 31 30 29 26 25 24 23 22 21 21 21 21 21 21 21 21 20 20 21 21 20 19 18 18 17 18 18 18 18 17 15 13 12 12 12 12 12 12 12 13 13 13 14 13 10 8 10 14 15 13 11
Wind_Direction
59 65 52 35 9 9 24 22 1 306 293 276 266 266 284 301 304 322 328 57 78 337 267 290 319 103 91 77 73 66 84 100 109 113 110 112 116 125 136 143 158 208 295 311 308 309 317 323 328 329 328 329 328 327 327 329 332 331 329 328 326 324 322 319 316 314 309 303 299 294 284 277 275 271 270 272 274 276 280 281 276 269 273 283 290 291
66 62 61 29 355 357 346 314 327 303 276 261 253 263 296 315 312 311 315 284 38 335 279 282 285 114 104 98 92 83 85 95 112 122 120 126 136 145 151 158 195 279 307 310 312 320 325 327 329 331 331 329 326 324 328 331 331 330 332 330 326 324 320 317 315 313 312 310 309 306 295 280 272 269 266 264 264 269 273 274 273 273 278 284 288 291
62 61 67 11 344 332 264 252 345 331 283 241 259 314 315 322 319 303 308 344 336 320 286 292 305 120 118 104 97 98 96 95 114 129 133 142 149 151 161 197 285 310 313 313 319 326 327 328 331 333 333 329 322 322 327 329 330 331 331 329 325 323 320 316 313 310 309 308 309 311 306 295 280 269 265 266 263 263 268 269 271 275 277 280 283 289
67 62 31 337 314 318 294 81 7 340 308 196 122 348 315 329 339 305 311 325 312 298 293 297 293 148 129 109 102 113 117 119 124 131 143 155 158 172 193 276 321 321 322 323 327 328 327 329 332 334 334 329 322 324 330 332 333 332 329 326 322 319 316 314 312 309 307 304 301 303 305 301 291 278 266 265 265 262 263 264 266 271 272 270 271 278
73 39 348 313 283 331 358 42 25 350 339 29 124 15 322 333 327 296 305 314 304 311 335 300 276 203 166 166 150 138 144 146 147 151 160 169 181 203 224 341 330 323 327 331 333 332 331 329 329 333 335 330 322 324 329 333 333 328 325 324 323 321 317 317 317 313 312 314 311 309 308 300 292 284 271 267 269 267 266 264 266 270 271 270 271 273
67 34 342 313 308 18 11 28 34 360 329 332 170 312 330 326 310 300 311 319 312 303 306 326 311 244 178 176 164 156 166 162 171 182 186 198 207 218 341 344 330 328 330 333 335 332 328 323 324 332 336 332 326 323 324 328 329 325 324 324 325 326 323 322 323 317 312 316 320 319 319 311 297 290 284 280 278 275 272 269 270 272 269 269 271 272
67 72 298 284 312 22 16 24 45 27 337 312 285 321 324 314 303 301 314 329 329 295 284 93 342 279 199 173 163 163 180 181 191 206 211 214 219 273 3 335 333 335 332 333 333 328 323 323 329 333 335 332 329 326 324 325 326 326 325 321 319 320 321 322 323 319 315 316 315 311 312 312 305 299 293 287 282 278 275 271 270 270 264 261 264 270
11 46 348 315 359 37 17 357 20 35 344 290 303 320 320 314 301 292 309 310 278 299 302 135 170 277 284 178 160 160 181 197 203 219 216 217 237 347 324 320 335 338 332 331 332 329 326 329 333 334 332 328 326 325 324 324 325 325 320 314 314 314 318 323 321 319 320 322 320 313 308 305 302 303 297 287 284 280 279 276 273 272 266 262 265 271
352 32 10 345 11 36 1 319 325 37 269 268 295 311 306 296 282 266 287 282 278 316 308 181 176 279 289 201 148 163 199 216 215 221 213 211 240 302 308 329 343 339 331 330 331 329 326 329 332 332 327 323 323 323 322 323 322 319 316 318 319 317 319 322 321 322 324 324 324 320 315 306 299 304 303 296 293 289 286 282 279 278 273 267 268 271
24 48 29 360 12 7 316 298 297 131 225 269 290 302 293 276 257 225 211 255 292 347 266 270 14 331 294 224 147 184 234 221 203 208 180 169 233 288 316 338 340 333 329 329 330 327 323 326 329 329 325 322 322 322 322 323 320 316 319 322 322 321 323 324 323 324 325 325 326 324 321 316 309 304 303 302 300 295 287 280 279 280 276 270 270 273
118 91 55 51 63 310 293 284 251 205 244 278 297 306 300 288 196 157 182 219 306 310 197 174 38 15 307 239 120 168 211 155 153 208 174 171 268 292 321 339 336 332 334 332 329 325 322 320 321 323 325 324 320 320 324 325 320 316 317 318 319 319 321 324 323 320 321 323 325 325 321 318 314 308 305 305 302 300 295 288 286 284 282 279 277 280
115 108 88 150 191 319 303 285 220 214 251 287 312 319 322 332 101 143 186 109 28 272 167 72 27 2 263 265 104 171 184 151 166 209 211 241 282 305 328 331 329 332 334 330 323 320 319 317 319 323 326 326 322 321 325 325 320 316 313 315 320 321 319 319 319 317 317 318 320 322 321 318 315 310 308 307 304 303 302 298 295 292 289 287 285 285
176 206 184 167 187 342 328 322 123 219 281 326 340 341 349 348 7 348 300 111 251 254 216 19 3 305 236 239 150 178 184 176 188 197 206 243 300 329 325 317 319 327 329 324 320 321 321 320 323 326 326 326 323 323 324 323 320 317 312 313 320 324 322 318 317 316 312 311 312 313 314 313 313 310 307 305 303 302 301 299 296 293 291 289 288 286
294 262 260 178 335 3 4 6 28 317 333 358 357 358 14 14 359 334 310 313 275 261 297 331 343 292 257 252 175 183 183 188 196 193 193 233 315 322 313 310 319 325 326 323 325 326 324 323 324 324 325 325 323 322 322 321 320 316 312 310 312 318 320 317 315 312 307 307 309 310 309 307 308 309 307 304 302 300 298 295 290 288 288 287 287 286
293 266 316 328 318 2 29 63 137 295 315 312 4 45 49 64 22 306 310 322 301 290 300 306 298 286 292 260 180 172 173 192 207 199 203 244 303 317 314 316 320 323 325 326 329 328 324 323 324 323 324 325 323 321 320 320 319 316 315 312 310 315 318 315 311 309 308 309 310 311 310 308 307 307 305 303 302 298 294 290 287 287 287 286 285 283
264 236 258 26 38 60 67 139 204 113 286 271 128 80 43 116 173 257 267 260 271 289 297 281 218 261 279 196 152 158 176 203 209 200 213 269 305 312 313 319 324 328 331 328 327 326 324 323 322 322 323 324 323 321 320 319 316 315 316 312 309 312 315 314 312 312 314 314 313 312 312 311 310 307 306 306 303 298 293 290 288 287 285 282 281 281
299 250 169 90 35 57 93 124 308 41 244 277 19 56 193 147 151 247 268 255 250 265 286 290 287 298 340 241 191 183 203 210 203 203 229 284 298 298 312 330 334 333 331 327 326 325 324 324 322 321 322 324 324 320 319 319 315 314 316 312 306 305 310 314 312 313 317 316 313 312 312 313 311 310 309 305 301 297 293 291 288 286 284 283 284 286
294 282 196 164 102 106 116 87 9 5 347 293 159 288 261 111 119 196 273 287 276 274 282 284 292 307 320 297 228 209 240 259 235 221 247 271 276 293 328 338 334 331 329 327 326 325 324 325 323 320 322 325 324 322 322 318 310 310 312 309 303 302 308 314 314 314 316 315 314 314 314 313 313 312 309 302 299 298 297 297 294 292 292 290 291 291
204 292 241 187 136 151 142 90 25 346 354 51 145 209 37 99 247 257 292 318 317 308 300 285 292 296 277 262 256 259 291 304 284 239 245 260 279 330 344 340 336 335 331 326 325 325 326 326 323 322 322 322 323 325 321 313 310 315 314 307 302 302 307 313 314 315 316 314 313 313 312 310 308 306 304 303 304 304 302 300 297 295 293 291 293 294
167 124 272 288 102 132 155 69 155 287 354 42 124 105 79 164 222 211 357 300 263 295 305 306 308 295 223 221 262 289 301 297 287 261 268 311 345 348 345 343 340 335 330 326 325 326 328 326 323 323 322 318 320 323 318 315 318 321 316 308 307 308 309 309 310 311 311 311 310 311 310 306 304 306 309 310 308 305 302 298 295 294 291 289 290 290
321 149 258 326 77 113 171 294 41 166 102 63 164 147 79 213 167 134 165 157 187 256 289 312 304 285 243 202 228 277 276 276 308 338 341 355 355 346 342 340 334 329 327 324 324 327 328 325 322 324 323 318 320 323 320 322 325 318 308 308 309 311 311 309 309 309 311 312 312 312 310 306 308 311 310 306 302 300 297 295 293 291 288 286 284 282
316 234 290 291 289 279 156 355 356 25 77 93 143 157 159 169 102 76 290 201 140 223 196 292 294 284 272 191 195 235 250 298 356 11 3 354 348 341 340 335 327 325 323 320 325 329 328 324 322 323 323 321 322 322 321 325 326 315 310 313 313 313 313 312 313 313 314 314 313 311 309 309 310 308 302 299 300 299 297 294 292 290 289 288 287 286
22 286 286 273 270 38 88 16 20 37 45 59 105 141 141 151 145 164 261 280 284 248 198 197 268 276 243 163 194 222 274 346 5 18 4 347 342 337 335 331 326 322 316 316 326 329 326 323 322 320 321 324 324 321 321 327 326 315 312 315 314 313 311 312 314 314 314 315 313 311 309 308 307 304 304 306 306 304 302 298 295 293 293 293 292 291
23 217 256 270 273 82 73 345 27 35 30 351 205 165 150 154 149 154 184 31 339 249 216 185 251 270 232 176 221 282 331 345 357 12 355 340 336 336 333 330 327 319 313 317 326 329 326 323 322 320 320 325 326 320 320 326 324 315 315 317 316 315 314 314 316 315 316 316 312 309 308 307 307 309 311 310 307 305 303 300 298 297 298 298 297 296
344 170 230 297 298 317 348 338 354 12 338 239 204 168 163 126 98 78 85 86 306 232 204 198 252 267 264 221 282 312 331 336 342 353 344 337 336 336 333 329 323 315 313 319 325 328 327 323 322 320 319 324 326 320 318 324 322 315 315 316 315 316 317 317 317 317 315 312 309 309 309 310 312 313 312 309 307 306 303 301 301 301 304 304 304 302
304 273 266 289 304 309 315 310 311 320 259 252 148 159 169 139 136 130 108 145 247 225 197 210 260 279 292 295 303 316 325 325 329 337 337 337 337 334 331 328 323 316 314 319 326 329 326 322 320 317 319 325 324 318 319 323 319 313 314 313 312 315 315 316 317 315 311 309 310 311 313 315 314 311 308 307 307 307 306 306 307 309 311 309 306 303
307 288 249 236 245 257 273 277 298 338 293 277 230 188 183 166 167 153 111 206 228 230 234 236 250 278 293 299 307 317 320 319 325 337 336 334 333 332 330 326 320 314 312 317 326 329 324 319 318 314 319 325 321 315 320 322 315 313 315 314 315 316 315 315 315 312 309 310 313 315 317 316 313 310 309 308 309 310 312 316 317 316 315 311 308 306
258 271 251 241 249 254 271 279 288 302 277 267 263 223 183 171 173 166 195 225 227 4 273 256 245 272 289 298 304 310 316 318 322 330 330 328 329 329 328 324 317 309 308 317 327 328 322 317 316 313 320 326 319 314 321 321 315 315 315 314 316 316 315 313 312 310 309 311 315 317 315 313 311 312 313 312 314 318 322 324 322 319 317 316 314 313
132 266 260 234 264 267 272 274 274 272 261 254 256 245 202 180 181 194 222 235 221 229 258 270 281 281 284 291 298 303 306 309 316 322 324 325 326 327 325 321 313 305 308 320 328 326 319 315 313 314 321 325 317 315 322 322 315 314 313 314 317 315 313 311 309 309 310 312 314 314 312 312 313 315 317 320 323 327 327 326 325 325 325 324 322 320
163 258 275 281 283 282 273 267 259 247 254 256 250 248 235 207 197 208 233 239 227 238 255 272 284 280 276 281 288 293 297 304 315 321 324 324 324 324 322 316 305 301 310 323 327 322 315 312 311 315 322 323 316 317 322 320 313 313 314 315 314 313 313 312 309 309 311 313 314 313 314 315 317 319 323 328 331 331 330 330 331 332 332 333 333 332
185 221 49 29 296 293 280 267 246 227 245 263 262 252 244 238 226 223 236 239 234 248 256 264 275 276 274 273 274 282 295 311 320 321 322 322 320 319 317 307 298 301 313 323 325 318 312 310 312 317 322 321 317 318 320 317 312 314 317 313 311 313 316 312 308 309 311 312 313 314 316 317 319 323 327 331 333 333 334 335 336 338 340 344 345 342
179 248 328 48 315 291 274 245 259 259 262 268 270 262 244 240 237 224 226 217 207 237 258 264 267 271 278 284 280 289 306 316 318 319 318 315 316 316 309 299 296 305 317 323 321 315 311 311 314 318 320 319 318 319 320 318 315 315 314 309 309 314 313 310 310 310 309 310 313 316 317 318 320 324 328 332 334 335 335 337 339 342 345 349 351 350
164 273 322 40 304 279 306 326 298 303 306 275 260 245 225 225 235 236 238 223 209 221 254 261 258 267 289 305 300 301 311 316 314 316 315 312 313 311 300 291 297 308 317 319 316 312 311 311 314 318 319 319 321 321 320 319 317 313 307 306 309 311 311 312 313 308 307 310 317 319 319 320 322 325 329 333 333 333 335 338 341 343 346 352 356 355
147 141 306 95 258 280 314 322 314 320 309 264 229 183 188 208 229 239 245 238 220 212 225 245 262 277 289 297 299 301 307 311 310 308 306 305 304 298 288 288 298 308 313 314 312 311 310 311 315 318 319 321 323 324 322 318 313 307 306 309 311 310 313 316 310 305 309 314 319 321 322 323 323 324 329 330 329 332 335 337 340 342 344 351 358 358
147 161 232 210 232 281 309 327 325 304 255 228 197 86 99 156 245 266 271 264 245 240 248 257 267 274 279 285 290 296 302 306 304 301 299 296 289 281 282 290 300 307 308 308 311 313 313 312 315 318 321 324 326 324 320 315 308 306 310 315 313 311 315 315 307 307 313 316 320 324 324 323 322 322 326 327 327 331 334 336 338 339 340 347 355 358
149 163 240 225 216 264 311 342 283 285 295 290 170 95 62 51 53 331 291 270 238 237 251 256 261 268 276 281 285 293 300 301 299 295 289 282 274 274 284 295 302 306 306 308 313 315 315 314 316 320 324 325 326 324 318 312 309 309 314 319 315 313 316 314 308 312 317 318 322 326 323 321 320 320 322 323 324 329 333 334 335 335 335 340 348 355
176 152 128 235 219 218 298 278 248 283 302 309 174 151 132 141 133 126 287 280 234 218 233 242 257 265 268 275 284 293 300 301 300 287 265 257 267 281 293 302 307 308 308 311 314 316 317 317 318 322 325 327 327 323 316 311 311 313 318 321 317 314 315 314 312 316 319 319 322 325 322 319 318 317 320 322 323 327 331 331 331 331 332 334 342 353
222 153 116 193 245 112 332 293 292 295 286 250 190 164 124 111 105 110 267 292 259 213 221 226 241 255 260 271 282 292 304 308 303 273 230 243 274 289 299 306 308 309 311 312 313 317 319 319 320 323 327 328 326 321 315 314 316 319 322 322 317 315 316 315 315 317 318 319 322 323 319 316 316 318 320 321 323 327 330 330 329 328 330 333 338 349
339 353 77 132 278 317 285 269 262 272 267 225 163 135 117 112 112 111 21 300 253 197 210 213 225 244 250 258 264 273 313 308 304 291 245 267 288 295 301 305 305 308 310 310 313 318 320 321 323 324 326 327 324 321 318 317 320 322 323 321 318 316 316 314 314 317 317 318 320 318 314 313 316 317 319 321 323 328 330 329 327 324 325 332 336 343
176 41 134 206 247 224 206 246 248 254 263 216 141 138 132 130 126 96 327 300 214 193 207 210 223 241 244 246 244 211 211 266 288 295 279 284 295 298 298 300 302 306 309 309 312 317 320 322 323 324 326 326 325 322 319 318 321 323 322 320 318 316 315 313 313 315 315 315 315 314 313 313 313 315 319 320 322 328 331 328 325 320 318 326 333 338
184 205 195 211 245 220 207 247 270 261 265 205 133 141 145 138 110 351 308 288 215 216 230 226 235 247 245 236 227 222 244 262 275 280 278 283 292 292 292 296 300 304 308 310 313 316 319 322 323 325 326 325 324 323 320 319 322 323 322 320 318 316 315 313 312 313 312 311 311 312 313 312 310 312 317 319 321 326 330 327 323 318 314 318 327 332
187 192 190 203 234 225 215 238 273 276 265 134 131 144 151 135 336 283 279 296 287 272 267 254 253 259 255 245 242 251 266 274 275 275 276 280 285 287 288 291 296 301 305 308 312 315 318 321 322 324 325 324 323 323 322 320 321 322 321 320 318 317 314 312 311 311 309 308 308 310 309 307 306 307 311 316 318 321 325 327 322 316 310 310 317 323
172 170 206 208 196 200 234 249 276 290 228 144 134 134 161 191 265 279 289 300 295 288 284 274 270 272 267 261 261 265 272 277 277 276 277 279 283 286 287 289 294 299 303 307 310 313 316 320 321 323 325 324 323 323 323 321 320 321 321 320 319 316 314 312 311 308 305 304 305 305 303 299 299 303 307 312 315 317 322 324 321 315 305 300 306 312
179 180 212 218 182 167 201 206 208 247 172 162 164 211 239 245 271 285 288 290 288 286 284 279 278 279 273 268 271 273 273 276 278 279 278 279 281 284 285 288 293 297 301 306 309 311 315 319 321 323 324 323 323 323 322 320 319 320 321 320 318 316 314 313 310 305 301 301 301 299 295 292 293 296 301 307 310 314 318 319 318 315 302 292 297 304
208 192 184 249 224 202 241 249 257 278 244 208 224 257 268 272 281 283 279 279 282 283 282 280 281 282 278 274 274 274 276 279 281 280 279 279 280 283 285 288 291 295 300 305 307 310 314 318 321 322 322 322 322 322 321 319 317 318 320 319 317 316 314 312 309 304 300 298 296 293 289 287 288 289 294 302 307 311 315 316 315 314 303 290 289 295
217 194 145 37 279 292 281 266 262 271 274 262 257 267 275 281 285 284 278 276 279 283 283 281 281 282 280 277 274 275 279 282 282 281 280 278 278 282 284 287 290 294 299 302 306 309 312 315 318 320 320 321 321 321 320 318 316 317 319 318 316 315 314 312 309 305 300 295 291 289 286 283 283 283 287 296 303 307 311 313 313 312 306 294 288 290
219 185 180 240 310 333 287 261 250 265 277 281 281 280 281 283 285 285 281 278 282 286 284 282 283 282 279 276 274 277 281 281 280 280 279 276 277 279 283 286 289 292 295 298 302 306 308 311 315 316 318 319 320 320 320 318 315 316 317 316 315 314 313 312 310 306 300 293 287 284 283 281 279 280 284 290 296 301 304 305 307 308 305 296 289 288
173 134 185 236 229 228 258 271 277 280 283 288 289 285 285 289 290 289 287 286 288 289 286 284 283 280 278 278 278 278 279 279 278 279 278 276 276 277 280 284 286 289 292 296 299 303 306 309 312 314 317 318 318 319 319 318 316 314 314 314 314 312 312 311 310 307 301 294 287 282 280 279 278 279 282 285 291 297 300 299 299 300 300 294 288 286
118 152 214 232 249 258 266 274 279 282 284 288 291 291 294 299 299 296 293 291 290 288 287 286 284 280 279 280 279 276 276 277 277 278 277 275 274 275 279 282 283 285 288 292 296 300 303 306 308 311 314 316 316 317 318 318 315 312 312 313 312 311 312 311 309 308 304 295 288 281 277 278 280 280 281 282 285 291 296 299 299 298 295 289 281 282
168 235 238 224 275 271 264 272 283 292 289 290 295 298 299 300 300 298 295 292 291 290 289 286 284 282 279 278 277 275 275 277 278 277 276 275 274 275 278 279 280 283 286 289 292 296 300 303 306 308 311 313 314 315 317 317 314 310 310 311 310 310 311 310 308 309 306 299 290 282 276 276 278 279 282 283 284 283 284 288 293 295 295 292 280 274
215 233 215 193 238 259 271 282 291 295 289 291 298 301 300 301 300 296 294 293 291 291 289 285 283 282 280 279 278 274 274 277 278 275 274 275 274 274 275 276 277 280 283 285 288 293 297 300 303 306 308 310 312 314 316 317 314 310 308 309 309 308 309 309 309 308 307 302 296 288 280 277 277 278 281 284 286 287 283 275 268 274 283 288 285 272